Weather History for Alamosa, CO

Change the Weather History Date:

Friday, March 8, 2013

  Actual Average Record
Temperature  
Mean Temperature 36 °F 31 °F  
Max Temperature 54 °F 48 °F 67 °F (1989)
Min Temperature 18 °F 15 °F -6 °F (1998)
Degree Days  
Heating Degree Days 29 34  
Month to date heating degree days 247 281  
Since 1 July heating degree days 7034 6610  
Cooling Degree Days 0 0  
Month to date cooling degree days 0 0  
Year to date cooling degree days 0 0  
Moisture  
Dew Point 23 °F    
Average Humidity 60    
Maximum Humidity 100    
Minimum Humidity 20    
Precipitation  
Precipitation 0.01 in 0.01 in 0.26 in (1994)
Month to date precipitation 0.01 0.11  
Year to date precipitation 0.23 0.63  
Snow  
Snow 0.00 in 0.20 in 2.50 in (1976)
Month to date snowfall T 1.2  
Since 1 July snowfall 15.5 19.3  
Snow Depth 0.00 in    
Sea Level Pressure  
Sea Level Pressure 29.81 in    
Wind  
Wind Speed 12 mph (South)    
Max Wind Speed 30 mph    
Max Gust Speed 39 mph    
Visibility 9 miles    
Events Snow    
T = Trace of Precipitation, MM = Missing Value Source: NWS Daily Summary

Daily Weather History Graph

Daily Weather History Graph

Search for Another Location

Airport:

Trip Planner

Search our weather history database for the weather conditions in past years. The results will help you decide how hot, cold, wet, or windy it might be!

Date:

Astronomy

Mar. 08, 2013 Rise Set
Actual Time 6:24 AM MST 6:04 PM MST
Civil Twilight 5:58 AM MST 6:30 PM MST
Nautical Twilight 5:28 AM MST 7:00 PM MST
Astronomical Twilight 4:57 AM MST 7:31 PM MST
Moon 4:07 AM MST (3/8) 3:05 PM MST (3/8)
Length of Visible Light 12h 32m
Length of Day
11h 40m
Waning Crescent, 11% of the Moon is Illuminated
Mar 8
Waning Crescent
Mar 11
New
Mar 19
First Quarter
Mar 27
Full
Apr 2
Last Quarter

Hourly Weather History & Observations

Time (MST) Temp. Windchill Dew Point Humidity Pressure Visibility Wind Dir Wind Speed Gust Speed Precip Events Conditions
12:52 AM 37.0 °F 31.0 °F 21.0 °F 52% 29.86 in 10.0 mi SSW 8.1 mph - N/A   Mostly Cloudy
1:52 AM 28.9 °F 21.9 °F 17.1 °F 61% 29.88 in 10.0 mi SSE 6.9 mph - N/A   Overcast
2:52 AM 28.0 °F 18.1 °F 15.1 °F 58% 29.88 in 10.0 mi SE 11.5 mph - N/A   Clear
3:52 AM 21.0 °F - 14.0 °F 74% 29.91 in 10.0 mi Calm Calm - N/A   Clear
4:52 AM 23.0 °F 18.4 °F 15.8 °F 74% 29.98 in 10.0 mi South 3.5 mph - N/A   Clear
5:52 AM 19.9 °F 11.1 °F 14.0 °F 78% 29.95 in 10.0 mi WSW 6.9 mph - N/A   Clear
6:52 AM 25.0 °F 19.3 °F 18.0 °F 75% 29.97 in 10.0 mi NNW 4.6 mph - N/A   Clear
7:52 AM 27.0 °F - 19.0 °F 72% 29.99 in 10.0 mi Calm Calm - N/A   Scattered Clouds
8:52 AM 34.0 °F 31.0 °F 19.9 °F 56% 29.97 in 10.0 mi SE 3.5 mph - N/A   Clear
9:52 AM 39.2 °F 34.2 °F 19.4 °F 45% 29.94 in 10.0 mi South 6.9 mph - N/A   Clear
10:52 AM 48.9 °F - 12.9 °F 24% 29.83 in 10.0 mi South 10.4 mph - N/A   Clear
11:52 AM 54.0 °F - 14.0 °F 21% 29.76 in 10.0 mi South 18.4 mph 27.6 mph N/A   Clear
12:43 PM 48.2 °F - 17.6 °F 30% 29.85 in 10.0 mi SSW 10.4 mph 29.9 mph N/A   Overcast
12:52 PM 50.0 °F - 17.1 °F 27% 29.73 in 9.0 mi SW 25.3 mph 36.8 mph N/A   Overcast
1:52 PM 48.9 °F - 21.9 °F 35% 29.75 in 10.0 mi SW 20.7 mph 27.6 mph N/A   Overcast
2:52 PM 48.9 °F - 21.0 °F 33% 29.74 in 10.0 mi SSW 26.5 mph - N/A   Scattered Clouds
3:52 PM 46.9 °F - 21.9 °F 37% 29.77 in 10.0 mi SSW 25.3 mph 29.9 mph N/A   Partly Cloudy
4:52 PM 39.9 °F 31.4 °F 28.0 °F 63% 29.77 in 10.0 mi South 16.1 mph - N/A   Clear
5:52 PM 37.9 °F 29.6 °F 28.9 °F 70% 29.79 in 10.0 mi South 13.8 mph 19.6 mph N/A   Partly Cloudy
6:48 PM 33.8 °F 21.6 °F 30.2 °F 87% 29.78 in 2.5 mi South 23.0 mph 36.8 mph 0.00 in Snow Light Snow
6:50 PM 33.8 °F 22.5 °F 30.2 °F 87% 29.78 in 1.8 mi South 19.6 mph 35.7 mph 0.00 in Snow Light Snow
6:52 PM 33.1 °F 21.2 °F 30.9 °F 92% 29.80 in 1.8 mi South 20.7 mph 32.2 mph 0.00 in Snow Light Snow
6:59 PM 33.8 °F 21.9 °F 32.0 °F 93% 29.78 in 3.0 mi SSW 21.9 mph - 0.01 in Snow Light Snow
7:14 PM 33.8 °F 22.5 °F 32.0 °F 93% 29.79 in 10.0 mi SW 19.6 mph 39.1 mph 0.01 in   Overcast
7:23 PM 33.8 °F 25.8 °F 32.0 °F 93% 29.78 in 10.0 mi SW 10.4 mph - 0.01 in   Overcast
7:33 PM 33.8 °F 24.3 °F 32.0 °F 93% 29.79 in 10.0 mi SSW 13.8 mph - 0.01 in   Overcast
7:42 PM 33.8 °F 26.4 °F 30.2 °F 87% 29.78 in 10.0 mi SSW 9.2 mph - 0.01 in   Overcast
7:52 PM 32.0 °F 24.8 °F 30.0 °F 92% 29.78 in 10.0 mi South 8.1 mph - 0.01 in   Mostly Cloudy
8:52 PM 30.0 °F 21.7 °F 28.0 °F 92% 29.77 in 10.0 mi SSE 9.2 mph - N/A   Partly Cloudy
9:52 PM 30.0 °F 19.5 °F 28.9 °F 96% 29.70 in 10.0 mi SE 13.8 mph - N/A   Partly Cloudy
10:52 PM 30.9 °F 20.7 °F 30.0 °F 96% 29.63 in 10.0 mi SSE 13.8 mph - N/A   Overcast
11:52 PM 30.9 °F 20.7 °F 30.0 °F 96% 29.59 in 10.0 mi South 13.8 mph - N/A   Mostly Cloudy